Regional Weather Roundup
Issued by NWS

Home | Current Version | Previous Version | Text Only | Print | Product List | Glossary On
Versions: 1 2 3 4 5 6 7 8 9 10 11 12 13 14 15 16 17 18 19 20 21 22 23 24 25 26 27 28 29 30 31 32 33 34 35 36 37 38 39 40 41 42 43 44 45 46 47 48 49 50
000
ASUS43 KLSX 010657
RWRMO

WEATHER SUMMARY FOR MISSOURI
NATIONAL WEATHER SERVICE SPRINGFIELD MO
200 AM CDT WED JUN 01 2016

NOTE: "FAIR" INDICATES FEW OR NO CLOUDS BELOW 12,000 FEET WITH NO
       SIGNIFICANT WEATHER AND/OR OBSTRUCTIONS TO VISIBILITY.
       CURRENT SKY AND/OR WEATHER CONDITIONS ARE NOT AVAILABLE FOR
       CHILLICOTHE AND FARMINGTON.

MOZ001>031-035>038-043-044-053-054-010800-
...NORTHERN AND WESTERN MISSOURI...

CITY           SKY/WX    TMP DP  RH WIND       PRES   REMARKS
KANSAS CTY INT CLEAR     66  63  90 NW5       29.96S
LEE`S SUMMIT   CLOUDY    67  64  90 CALM      29.96S
ST JOSEPH      CLOUDY    63  61  93 N5        29.96S
CHILLICOTHE      N/A     62  61  96 CALM      29.95F

$$
MOZ066>068-077>081-088>096-101>105-010800-
...SOUTHWEST MISSOURI...

CITY           SKY/WX    TMP DP  RH WIND       PRES   REMARKS
SPRINGFIELD    CLOUDY    66  63  90 S3        29.95F
JOPLIN         CLOUDY    65  64  97 SE3       29.95F

$$
MOZ032>034-039>042-045>050-055>058-069>072-010800-
...CENTRAL MISSOURI...

CITY           SKY/WX    TMP DP  RH WIND       PRES   REMARKS
COLUMBIA       NOT AVBL
JEFFERSON CITY TSTM      70  67  90 NW8       29.94R FOG
ROLLA          CLOUDY    69  66  90 SE7       29.93F
SEDALIA        CLOUDY    70  66  87 SW3       29.95S
WARRENSBURG    CLOUDY    68  64  88 W5        29.94F

$$
MOZ051-052-059>065-010800-
...EAST CENTRAL MISSOURI...

CITY           SKY/WX    TMP DP  RH WIND       PRES   REMARKS
ST LOUIS INTL  CLOUDY    76  64  66 CALM      29.93F

$$
MOZ072>076-082>087-097>100-106>115-010800-
...SOUTH CENTRAL AND SOUTHEAST MISSOURI...

CITY           SKY/WX    TMP DP  RH WIND       PRES   REMARKS
CAPE GIRARDEAU MOCLDY    69  67  93 E3        29.92F
POPLAR BLUFF   PTCLDY    70  67  90 CALM      29.91F
WEST PLAINS    CLOUDY    67  64  90 CALM      29.96F

$$


USA.gov is the U.S. government's official web portal to all federal, state and local government web resources and services.